This is the latest recevied weather packets stored in our database for station/object K1ABC. If no packets are shown the sender has not sent any weather packets the latest 10 day(s).
| Time | Temp. | Humidity | Pressure | Rain* | Wind** | Luminosity | Snow |
|---|---|---|---|---|---|---|---|
| 1777894860 | 10.56° C | 57% | 1009.8 hPa | 0 mm | - | - | - |
| 1777892478 | 8.89° C | 60% | 1009.8 hPa | 0 mm | - | - | - |
| 1777891524 | 8.33° C | 59% | 1009.7 hPa | 0 mm | - | - | - |
| 1777890273 | 8.33° C | 60% | 1009.9 hPa | 0 mm | - | - | - |
| 1777890018 | 8.33° C | 61% | 1009.8 hPa | 0 mm | - | - | - |
| 1777888849 | 7.78° C | 61% | 1009.8 hPa | 0 mm | - | - | - |
| 1777888359 | 7.22° C | 61% | 1009.8 hPa | 0 mm | - | - | - |
| 1777886572 | 7.22° C | 62% | 1009.6 hPa | 0 mm | - | - | - |
| 1777886443 | 7.22° C | 61% | 1009.6 hPa | 0 mm | - | - | - |
| 1777886323 | 7.22° C | 61% | 1009.6 hPa | 0 mm | - | - | - |
| 1777884928 | 7.22° C | 61% | 1009.2 hPa | 0 mm | - | - | - |
| 1777882936 | 7.22° C | 60% | 1009.6 hPa | 0 mm | - | - | - |
| 1777882810 | 7.22° C | 61% | 1009.6 hPa | 0 mm | - | - | - |
| 1777882682 | 7.22° C | 60% | 1009.7 hPa | 0 mm | - | - | - |
| 1777882432 | 7.22° C | 61% | 1009.7 hPa | 0 mm | - | - | - |
| 1777881114 | 6.67° C | 61% | 1009.7 hPa | 0 mm | - | - | - |
| 1777880404 | 6.67° C | 60% | 1009.6 hPa | 0 mm | - | - | - |
| 1777879790 | 6.67° C | 60% | 1009.7 hPa | 0 mm | - | - | - |
| 1777878594 | 6.67° C | 62% | 1009.5 hPa | 0 mm | - | - | - |
| 1777877834 | 6.11° C | 62% | 1009.5 hPa | 0 mm | - | - | - |
| 1777877707 | 6.11° C | 62% | 1009.4 hPa | 0 mm | - | - | - |
| 1777876808 | 6.11° C | 63% | 1009.4 hPa | 0 mm | - | - | - |
| 1777875449 | 5.56° C | 64% | 1009.5 hPa | 0 mm | - | - | - |
| 1777873631 | 5° C | 64% | 1009.5 hPa | 0 mm | - | - | - |
| 1777872612 | 5° C | 66% | 1009.6 hPa | 0 mm | - | - | - |
* Rain latest hour (hover to see other rain measurements)
** Current wind speed in m/s (hover to see current wind gust speed)